Regional Weather Roundup
Issued by NWS

Home | Current Version | Previous Version | Graphics & Text | Print | Product List | Glossary On
Versions: 1 2 3 4 5 6 7 8 9 10 11 12 13 14 15 16 17 18 19 20 21 22 23 24 25 26 27 28 29 30 31 32 33 34 35 36 37 38 39 40 41 42 43 44 45 46 47 48 49 50
000
ASUS43 KIND 151509
RWRIN

WEATHER ROUNDUP FOR INDIANA
NATIONAL WEATHER SERVICE INDIANAPOLIS IN
1000 AM EST FRI DEC 15 2017

NOTE: "FAIR" INDICATES FEW OR NO CLOUDS BELOW 12,000 FEET WITH NO
SIGNIFICANT WEATHER AND/OR OBSTRUCTIONS TO VISIBILITY.

* - STATION DOES NOT REPORT WEATHER SUCH AS PRECIPITATION OR FOG.

+ - STATION NOT QUALITY CONTROLLED BY THE NATIONAL WEATHER SERVICE.
    USE DATA WITH CAUTION...ESPECIALLY DEWPOINT AND RELATIVE
    HUMIDITY OBSERVATIONS.

INZ001>003-010>013-019-020-151600-
NORTHWEST INDIANA

CITY           SKY/WX    TMP DP  RH WIND       PRES   REMARKS
GARY /AIRPORT/ CLOUDY    28  19  69 W15G26    29.95R WCI  17
KNOX *+        CLOUDY    27  21  80 W14       29.93S WCI  15
LA PORTE +     SNOW      24  21  90 W8        29.92R VSB 1/2 WCI  14
MICHIGAN CITY+ FLURRIES  28  19  69 W20G25    29.92S WCI  15
MONTICELLO +   CLOUDY    25  19  78 W13       29.97R WCI  14
RENSSELAER +   CLOUDY    28  21  74 W15       29.96S WCI  17
VALPARAISO     LGT SNOW  27  21  78 W12       29.93S WCI  17

$$

LMZ046-743>745-151600-
SOUTHERN LAKE MICHIGAN

STATION/POSITION TIME  TEMP    WIND        PRES    WAVE
                       AIR SEA DIR/SP/G            HT
                 (UTC) (F)     (DEG/KT/KT) (MB)    (FT)
BURNS HARBOR     1440   28     270/ 16/ 26 1013.9S
MICHIGAN CITY    1440   27     260/ 31/ 34   N/A

$$

INZ004-005-014>016-021>024-151600-
NORTH CENTRAL INDIANA

CITY           SKY/WX    TMP DP  RH WIND       PRES   REMARKS
ELKHART        LGT SNOW  23  18  80 SW14      29.89F WCI  11
GOSHEN         LGT SNOW  23  16  74 SW14      29.90S WCI  11
LOGANSPORT +   FLURRIES  27  21  80 W15G22    29.98R WCI  15
PERU/GRISSOM   LGT SNOW  25  19  80 W15       29.95R WCI  12
ROCHESTER +    PTSUNNY   28  21  74 SW13      29.94S WCI  18
SOUTH BEND     LGT SNOW  21  20  96 SW14      29.90S FOG     WCI   8
WARSAW +       CLOUDY    25  18  74 SW13G18   29.91S WCI  13

$$

INZ006>009-017-018-025>027-151600-
NORTHEAST INDIANA

CITY           SKY/WX    TMP DP  RH WIND       PRES   REMARKS
AUBURN +       CLOUDY    27  18  69 SW10      29.91S WCI  17
FORT WAYNE     CLOUDY    26  18  71 SW16      29.92F WCI  14
HUNTINGTON +   CLOUDY    25  17  72 W12       29.94S WCI  15
KENDALLVILLE + CLOUDY    23  16  75 W14G20    29.89S WCI  11

$$

INZ028-029-035-036-043>045-051>053-151600-
WEST CENTRAL INDIANA

CITY           SKY/WX    TMP DP  RH WIND       PRES   REMARKS
CRAWFORDSVL +  CLOUDY    24  19  79 MISG      30.01R
GREENCASTLE +  CLOUDY    28  19  69 SW5       30.03S WCI  23
LAFAYETTE      CLOUDY    26  20  77 W10       29.99S WCI  16
TERRE HAUTE    CLOUDY    28  19  69 SW10      30.06R WCI  19

$$

INZ030>032-037>040-046>048-054>057-064-065-151600-
CENTRAL INDIANA

CITY           SKY/WX    TMP DP  RH WIND       PRES   REMARKS
ANDERSON       CLOUDY    27  18  69 W10G18    29.98F WCI  17
COLUMBUS       MOSUNNY   28  18  64 SW9       30.05R WCI  20
FRANKFORT +    CLOUDY    28  21  74 W16       30.00R WCI  17
GREENWOOD *+   CLOUDY    31  21  65 W12       30.02R WCI  22
INDIANAPOLIS   CLOUDY    27  17  66 W18       30.02R WCI  14
-EAGLE CREEK   CLOUDY    27  17  66 W9G21     30.00R WCI  18
KOKOMO +       FLURRIES  26  19  74 SW16      29.97S WCI  14
MT COMFORT *+  CLOUDY    27  21  80 W14       30.00R WCI  15
SHELBYVILLE    CLOUDY    29  18  63 SW14      30.01S WCI  18
ZIONSVILLE +   CLOUDY    25  18  73 SW14G21   29.99S WCI  13

$$

INZ033-034-041-042-049-050-058-059-151600-
EAST CENTRAL INDIANA

CITY           SKY/WX    TMP DP  RH WIND       PRES   REMARKS
MUNCIE         CLOUDY    28  17  63 SW14      29.96F WCI  17
RICHMOND +     CLOUDY    23  19  86 W12       29.99R WCI  12

$$

INZ060-061-067>069-081>083-085>088-151600-
SOUTHWEST INDIANA

CITY           SKY/WX    TMP DP  RH WIND       PRES   REMARKS
EVANSVILLE     SUNNY     32  21  64 W9        30.14R WCI  24
HUNTINGBURG +  MOSUNNY   30  21  69 W12       30.11S WCI  20
WASHINGTON +   SUNNY     31  18  59 W12       30.11R WCI  21

$$

INZ062-063-066-070>080-084-089>092-151600-
SOUTH CENTRAL AND SOUTHEAST INDIANA

CITY           SKY/WX    TMP DP  RH WIND       PRES   REMARKS
BEDFORD +      SUNNY     28  19  69 W10       30.06S WCI  19
BLOOMINGTON    PTSUNNY   28  17  63 W12G20    30.05R WCI  18
MADISON *+     CLOUDY    28  21  74 W8        30.08R WCI  20
NORTH VERNON + CLOUDY    25  19  80 SW9       30.06R WCI  15
SEYMOUR +      CLOUDY    30  19  64 W10G21    30.07R WCI  21

$$





USA.gov is the U.S. government's official web portal to all federal, state and local government web resources and services.